Regional Weather Roundup
Issued by NWS Upton, NY

Current Version | Previous Version | Text Only | Print | Product List | Glossary Off
Versions: 1 2 3 4 5 6 7 8 9 10 11 12 13 14 15 16 17 18 19 20 21 22 23 24 25 26 27 28 29 30 31 32 33 34 35 36 37 38 39 40 41 42 43 44 45 46 47 48 49 50

000
ASUS41 KOKX 061718
RWROKX

REGIONAL WEATHER ROUNDUP
NATIONAL WEATHER SERVICE NEW YORK NY
100 PM EDT MON JUL 06 2015

NOTE: "FAIR" INDICATES FEW OR NO CLOUDS BELOW 12,000 FEET WITH NO
SIGNIFICANT WEATHER AND/OR OBSTRUCTIONS TO VISIBILITY.

NYZ071-072-176-178-NJZ106-104-061800-
NEW YORK CITY METRO AREA


CITY           SKY/WX    TMP DP  RH WIND       PRES   REMARKS
CENTRAL PARK   PTSUNNY   82  63  52 VRB5      30.19S
LAGUARDIA APRT CLOUDY    82  61  48 S13G21    30.15F
KENNEDY INTL   CLOUDY    80  65  59 S9        30.18S
NEWARK/LIBERTY CLOUDY    81  66  60 SE9       30.16R
BRNX BOT. GARD   N/A     81  63  54 S5        30.17R
TETERBORO      PTSUNNY   82  63  52 S8        30.14S
$$

NYZ177-179-078>081-061800-
LONG ISLAND NEW YORK

CITY           SKY/WX    TMP DP  RH WIND       PRES   REMARKS
FARMINGDALE    PTSUNNY   79  65  62 S10       30.17F
ISLIP          PTSUNNY   80  64  58 S10       30.16F
SHIRLEY        MOSUNNY   81  65  58 S10       30.18F
WESTHAMPTON    PTSUNNY   80  66  62 VRB7      30.19F
MONTAUK POINT    N/A     76  67  73 VRB7      30.20F
$$

NYZ052-065-067-061800-
HUDSON VALLEY

CITY           SKY/WX    TMP DP  RH WIND       PRES   REMARKS
WHITE PLAINS   PTSUNNY   80  64  58 S8G16     30.17S
NEWBURGH       PTSUNNY   79  68  69 VRB6      30.18R
MONTGOMERY     CLOUDY    80  69  69 NW3       30.16R
POUGHKEEPSIE   PTSUNNY   82  66  58 SE3       30.15S
ALBANY         MOSUNNY   82  59  45 CALM      30.17R
$$

NJZ001-105-106-008-010-013-015-019>022-104-061800-
NEW JERSEY

CITY           SKY/WX    TMP DP  RH WIND       PRES   REMARKS
NEWARK/LIBERTY CLOUDY    81  66  60 SE9       30.16R
TETERBORO      PTSUNNY   82  63  52 S8        30.14S
CALDWELL       PTSUNNY   82  64  54 SE8       30.16R
MORRISTOWN     PTSUNNY   84  70  61 W6        30.16S
SOMERVILLE     PTSUNNY   83  66  56 S5        30.13S
SUSSEX         PTSUNNY   80  66  62 VRB6      30.16S
ANDOVER          N/A     80  67  64 SW10      30.17S
TRENTON        CLOUDY    81  68  64 SW10      30.14F
MILLVILLE      CLOUDY    81  72  74 SE6       30.14F
ATLANTIC CITY  CLOUDY    80  71  74 SE12      30.15S
WRIGHTSTOWN    PTSUNNY   81  72  74 SE8       30.12F
TOMS RIVER     CLOUDY    79  70  73 S9        30.16F
BELMAR         CLOUDY    79  66  65 SE7       30.16S
$$

PAZ047>061-062-071-061800-
EASTERN PENNSYLVANIA

CITY           SKY/WX    TMP DP  RH WIND       PRES   REMARKS
PHILADELPHIA   CLOUDY    82  71  69 SE8       30.13F
ALLENTOWN      CLOUDY    83  67  58 SW5       30.14F
SCRANTON       PTSUNNY   82  63  52 SW8       30.15F
$$

CTZ002-004>006-009-010-012-RIZ004-006-007-MAZ004-011-015-061800-
SOUTHERN NEW ENGLAND
 IN CT

CITY           SKY/WX    TMP DP  RH WIND       PRES   REMARKS
BRADLEY INTL   PTSUNNY   83  63  50 SE7       30.16S
HARTFORD       MOSUNNY   82  63  52 SW7G18    30.16S
DANBURY        PTSUNNY   79  63  57 S8        30.19R
WTRBRY/OXFORD  MOSUNNY   81  63  54 SW6       30.21R
BRIDGEPORT     PTSUNNY   78  69  73 E7        30.17S
MERIDEN        MOSUNNY   82  63  52 S10       30.16F
NEW HAVEN      PTSUNNY   80  69  69 S6        30.17F
CHESTER        FAIR      81  66  61 S9        30.19S
GROTON         MOSUNNY   74  68  81 S7        30.18S
WILLIMANTIC    MOSUNNY   83  60  45 VRB7      30.17F

 IN RI

CITY           SKY/WX    TMP DP  RH WIND       PRES   REMARKS
PROVIDENCE     MOSUNNY   82  65  56 S12       30.16F
BLOCK ISLAND   MOSUNNY   75  66  73 SW14      30.20S
WESTERLY       MOSUNNY   77  68  73 S8        30.19S

 IN MA

CITY           SKY/WX    TMP DP  RH WIND       PRES   REMARKS
BOSTON         MOSUNNY   77  62  59 E12       30.15F
WORCESTER      SUNNY     81  53  37 W8        30.20F
WESTFIELD      MOSUNNY   82  59  45 S7        30.16F
PROVINCETOWN   SUNNY     81  19  10 NE5       30.18S
NANTUCKET      MOSUNNY   75  68  78 SW10      30.19S
$$

ANZ330-335-338-340-345-350-353-355-061800-
COASTAL MARINE OBSERVATIONS


STATION/POSITION TIME  SKY/WX   TEMP    WIND        PRES    VSBY  WAVE
                                AIR SEA DIR/SP/G                  HT/PER
                 (UTC)          (F)     (DEG/KT/KT) (MB)    (MI)  (FT/S)
NY HARB ENTRANCE 1650            72 72  130/  6/  6 1021.2          2/ 6
4S FIRE IS       1603               70                N/A           2/ 6
20S FIRE ISLAND  1650            72 71  150/  6/  6 1021.3          2/ 6
GREAT SOUTH BAY  1600            74 77  230/  4/  8   N/A
23SW MTP         1650            71 70  200/  4/  6 1021.9          2/ 8
HUDSON CANYON    NOT AVBL
KINGS POINT      1600            76 70  200/ 10/ 12 1020.7
CENTRAL LI SOUND NOT AVBL
EASTERN LI SOUND 1600            70 65  140/  4/  4   N/A
ROBBINS REEF     1600            74     170/ 12/ 13 1020.1
$$


>>>>>>>>>>>>>>>>>>>>>>>>>>>> KEY <<<<<<<<<<<<<<<<<<<<<<<<<<<
>                                                          <
>     SKY/WX - SKY CONDITION/PRESENT WEATHER               <
>     TMP    - TEMPERATURE IN FAHRENHEIT                   <
>     DP     - DEWPOINT IN FAHRENHEIT                      <
>     RH     - RELATIVE HUMIDITY IN PERCENT                <
>     WIND   - DIRECTION AND SPEED IN MPH                  <
>     PRES   - MEAN SEA LEVEL PRESSURE IN INCHES OF HG     <
>     WCI    - WIND CHILL INDEX                            <
>     VSB    - VISIBILITY IN MILES                         <
>     HX     - HEAT INDEX                                  <
>     TC     - TEMPERATURE IN CELSIUS                      <
>     VRB    - VARIABLE WIND DIRECTION                     <
>                                                          <
>>>>>>>>>>>>>>>>>>>>>>>>>>>> KEY <<<<<<<<<<<<<<<<<<<<<<<<<<<





USA.gov is the U.S. government's official web portal to all federal, state and local government web resources and services.